When you browse on this site, cookies collect data to enhance your experience and personalize the content and advertising you see.
Visit our Privacy Policy to learn more. By continuing to use the site, you agree to this use of cookies and data.

Hourly Weather Rawson

Today, 11 August, Tuesday

Time Temperature Precipitation Wind Pressure Humidity
00:00 +2°C° 0 mm 10 mps 757 mmHg 50%
01:00 +2°C° 0 mm 10 mps 757 mmHg 52%
02:00 +2°C° 0 mm 10 mps 758 mmHg 54%
03:00 +2°C° 0 mm 9 mps 757 mmHg 54%
04:00 +1°C° 0 mm 8 mps 757 mmHg 55%
05:00 +1°C° 0 mm 8 mps 757 mmHg 56%
06:00 +1°C° 0 mm 8 mps 757 mmHg 56%
07:00 +1°C° 0 mm 8 mps 757 mmHg 57%
08:00 +1°C° 0 mm 8 mps 757 mmHg 55%
09:00 +5°C° 0 mm 9 mps 756 mmHg 49%
10:00 +7°C° 0 mm 10 mps 756 mmHg 43%
11:00 +9°C° 0 mm 11 mps 756 mmHg 37%
12:00 +11°C° 0 mm 11 mps 755 mmHg 36%
13:00 +12°C° 0 mm 11 mps 754 mmHg 35%
14:00 +13°C° 0 mm 11 mps 754 mmHg 34%
15:00 +12°C° 0 mm 10 mps 754 mmHg 36%
16:00 +12°C° 0 mm 9 mps 753 mmHg 37%
17:00 +12°C° 0 mm 8 mps 753 mmHg 39%
18:00 +11°C° 0 mm 8 mps 753 mmHg 43%
19:00 +10°C° 0 mm 9 mps 753 mmHg 46%
20:00 +8°C° 0 mm 9 mps 753 mmHg 49%
21:00 +7°C° 0 mm 9 mps 753 mmHg 50%
22:00 +7°C° 0 mm 10 mps 753 mmHg 52%
23:00 +6°C° 0 mm 10 mps 753 mmHg 53%

Tomorrow, 12 August, Wednesday

Time Temperature Precipitation Wind Pressure Humidity
00:00 +6°C° 0 mm 10 mps 752 mmHg 54%
01:00 +6°C° 0 mm 10 mps 752 mmHg 55%
02:00 +5°C° 0 mm 9 mps 751 mmHg 56%
03:00 +5°C° 0 mm 10 mps 751 mmHg 56%
04:00 +5°C° 0 mm 10 mps 750 mmHg 56%
05:00 +5°C° 0 mm 10 mps 750 mmHg 55%
06:00 +5°C° 0 mm 10 mps 750 mmHg 55%
07:00 +5°C° 0 mm 10 mps 750 mmHg 54%
08:00 +5°C° 0 mm 9 mps 750 mmHg 54%
09:00 +7°C° 0 mm 10 mps 750 mmHg 50%
10:00 +8°C° 0 mm 11 mps 750 mmHg 46%
11:00 +9°C° 0 mm 12 mps 750 mmHg 43%
12:00 +10°C° 0 mm 12 mps 750 mmHg 40%
13:00 +10°C° 0 mm 12 mps 749 mmHg 38%
14:00 +12°C° 0 mm 11 mps 749 mmHg 35%
15:00 +11°C° 0 mm 10 mps 749 mmHg 37%
16:00 +11°C° 0 mm 9 mps 749 mmHg 38%
17:00 +11°C° 0 mm 8 mps 749 mmHg 40%
18:00 +10°C° 0 mm 7 mps 748 mmHg 42%
19:00 +9°C° 0 mm 7 mps 748 mmHg 45%
20:00 +9°C° 0 mm 6 mps 748 mmHg 48%
21:00 +8°C° 0 mm 6 mps 748 mmHg 49%
22:00 +8°C° 0 mm 7 mps 747 mmHg 51%
23:00 +8°C° 0 mm 7 mps 747 mmHg 52%

Day after tomorrow, 13 August, Thursday

Time Temperature Precipitation Wind Pressure Humidity
00:00 +6°C° 0 mm 8 mps 747 mmHg 54%
01:00 +6°C° 0 mm 8 mps 747 mmHg 57%
02:00 +6°C° 0 mm 8 mps 747 mmHg 59%
03:00 +5°C° 0 mm 8 mps 748 mmHg 61%
04:00 +5°C° 0 mm 8 mps 748 mmHg 63%
05:00 +5°C° 0 mm 8 mps 748 mmHg 65%
06:00 +5°C° 0 mm 7 mps 748 mmHg 67%
07:00 +5°C° 0 mm 6 mps 749 mmHg 68%
08:00 +5°C° 0 mm 5 mps 749 mmHg 70%
09:00 +7°C° 0 mm 5 mps 749 mmHg 63%
10:00 +8°C° 0 mm 5 mps 749 mmHg 56%
11:00 +10°C° 0 mm 5 mps 749 mmHg 48%
12:00 +12°C° 0 mm 5 mps 749 mmHg 46%
13:00 +12°C° 0 mm 4 mps 748 mmHg 44%
14:00 +13°C° 0 mm 4 mps 748 mmHg 42%
15:00 +12°C° 0 mm 3 mps 748 mmHg 43%
16:00 +12°C° 0 mm 3 mps 747 mmHg 45%
17:00 +13°C° 0 mm 2 mps 747 mmHg 46%
18:00 +12°C° 0 mm 2 mps 747 mmHg 51%
19:00 +11°C° 0 mm 3 mps 747 mmHg 56%
20:00 +10°C° 0 mm 3 mps 747 mmHg 60%
21:00 +10°C° 0.1 mm 3 mps 747 mmHg 63%
22:00 +9°C° 0.1 mm 2 mps 747 mmHg 66%
23:00 +9°C° 0.1 mm 2 mps 747 mmHg 68%

14 August, Friday

Time Temperature Precipitation Wind Pressure Humidity
00:00 +9°C° 0.2 mm 2 mps 747 mmHg 74%
01:00 +8°C° 0.2 mm 3 mps 747 mmHg 79%
02:00 +7°C° 0.2 mm 4 mps 747 mmHg 84%
03:00 +5°C° 0.8 mm 6 mps 748 mmHg 86%
04:00 +5°C° 0.8 mm 8 mps 748 mmHg 88%
05:00 +5°C° 0.8 mm 10 mps 749 mmHg 90%
06:00 +3°C° 0.5 mm 10 mps 750 mmHg 86%
07:00 +3°C° 0.5 mm 10 mps 751 mmHg 82%
08:00 +3°C° 0.5 mm 11 mps 752 mmHg 79%
09:00 +3°C° 0.1 mm 10 mps 752 mmHg 74%
10:00 +5°C° 0.1 mm 8 mps 753 mmHg 69%
11:00 +5°C° 0.1 mm 7 mps 754 mmHg 65%
12:00 +5°C° 0 mm 6 mps 754 mmHg 59%
13:00 +7°C° 0 mm 5 mps 754 mmHg 54%
14:00 +7°C° 0 mm 4 mps 754 mmHg 48%
15:00 +7°C° 0 mm 4 mps 753 mmHg 49%
16:00 +7°C° 0 mm 5 mps 753 mmHg 51%
17:00 +7°C° 0 mm 5 mps 753 mmHg 52%
18:00 +7°C° 0 mm 5 mps 752 mmHg 50%
19:00 +6°C° 0 mm 5 mps 752 mmHg 47%
20:00 +6°C° 0 mm 5 mps 751 mmHg 45%
21:00 +5°C° 0 mm 6 mps 750 mmHg 45%
22:00 +5°C° 0 mm 7 mps 749 mmHg 44%
23:00 +5°C° 0 mm 8 mps 748 mmHg 44%

15 August, Saturday

Time Temperature Precipitation Wind Pressure Humidity
00:00 +5°C° 0 mm 10 mps 748 mmHg 44%
01:00 +3°C° 0 mm 11 mps 748 mmHg 45%
02:00 +3°C° 0 mm 12 mps 748 mmHg 46%
03:00 +2°C° 0 mm 12 mps 749 mmHg 46%
04:00 +1°C° 0 mm 13 mps 749 mmHg 45%
05:00 +1°C° 0 mm 13 mps 749 mmHg 45%
06:00 +1°C° 0 mm 13 mps 749 mmHg 45%
07:00 +1°C° 0 mm 13 mps 749 mmHg 45%
08:00 +1°C° 0 mm 13 mps 749 mmHg 45%
09:00 +3°C° 0 mm 14 mps 749 mmHg 41%
10:00 +5°C° 0 mm 15 mps 749 mmHg 38%
11:00 +6°C° 0 mm 16 mps 749 mmHg 34%
12:00 +6°C° 0 mm 15 mps 749 mmHg 32%
13:00 +8°C° 0 mm 14 mps 749 mmHg 30%
14:00 +8°C° 0 mm 13 mps 749 mmHg 29%
15:00 +8°C° 0 mm 13 mps 748 mmHg 31%
16:00 +8°C° 0 mm 12 mps 748 mmHg 33%
17:00 +8°C° 0 mm 11 mps 747 mmHg 35%
18:00 +8°C° 0 mm 13 mps 746 mmHg 37%
19:00 +8°C° 0 mm 15 mps 746 mmHg 39%
20:00 +6°C° 0 mm 17 mps 745 mmHg 41%
21:00 +6°C° 0 mm 16 mps 745 mmHg 45%
22:00 +6°C° 0 mm 15 mps 744 mmHg 48%
23:00 +6°C° 0 mm 14 mps 744 mmHg 52%

16 August, Sunday

Time Temperature Precipitation Wind Pressure Humidity
00:00 +5°C° 0.5 mm 13 mps 744 mmHg 54%
01:00 +3°C° 0.5 mm 12 mps 745 mmHg 56%
02:00 +2°C° 0.5 mm 11 mps 745 mmHg 58%
03:00 +2°C° 0 mm 11 mps 746 mmHg 55%
04:00 +2°C° 0 mm 11 mps 746 mmHg 52%
05:00 +1°C° 0 mm 10 mps 747 mmHg 48%
06:00 +1°C° 0 mm 11 mps 747 mmHg 48%
07:00 +2°C° 0 mm 11 mps 748 mmHg 48%
08:00 +2°C° 0 mm 12 mps 748 mmHg 48%
09:00 +1°C° 0 mm 13 mps 750 mmHg 48%
10:00 +1°C° 0 mm 15 mps 751 mmHg 47%
11:00 +2°C° 0 mm 16 mps 752 mmHg 46%
12:00 +2°C° 0 mm 15 mps 753 mmHg 48%
13:00 +4°C° 0 mm 14 mps 753 mmHg 50%
14:00 +4°C° 0 mm 14 mps 754 mmHg 52%
15:00 +4°C° 0 mm 12 mps 755 mmHg 50%
16:00 +4°C° 0 mm 11 mps 755 mmHg 47%
17:00 +5°C° 0 mm 10 mps 756 mmHg 44%
18:00 +3°C° 0 mm 9 mps 756 mmHg 48%
19:00 +3°C° 0 mm 7 mps 757 mmHg 51%
20:00 +3°C° 0 mm 5 mps 757 mmHg 54%
21:00 +3°C° 0 mm 4 mps 757 mmHg 55%
22:00 +3°C° 0 mm 3 mps 757 mmHg 56%
23:00 +3°C° 0 mm 3 mps 757 mmHg 57%
Show more